Weather History for PHLI - December, 2012

Change the Weather History Date:

Tuesday, December 25, 2012

  Actual Average Record
Temperature  
Mean Temperature 73 °F 73 °F  
Max Temperature 77 °F 79 °F 84 °F (1980)
Min Temperature 68 °F 67 °F 59 °F (1990)
Degree Days  
Heating Degree Days 0 0  
Month to date heating degree days 0 0  
Since 1 July heating degree days 0 0  
Cooling Degree Days 8 8  
Month to date cooling degree days 235 211  
Year to date cooling degree days 4076 3902  
Growing Degree Days 22 (Base 50)    
Moisture  
Dew Point 67 °F    
Average Humidity 85    
Maximum Humidity 90    
Minimum Humidity 79    
Precipitation  
Precipitation 0.03 in 0.18 in 2.40 in (1992)
Month to date precipitation 4.24 4.26  
Year to date precipitation 41.05 36.11  
Snow  
Snow 0.00 in - - ()
Month to date snowfall 0.0  
Since 1 July snowfall 0.0  
Snow Depth 0.00 in    
Sea Level Pressure  
Sea Level Pressure 30.04 in    
Wind  
Wind Speed 9 mph (ENE)    
Max Wind Speed 16 mph    
Max Gust Speed 20 mph    
Visibility 10 miles    
Events Rain    
T = Trace of Precipitation, MM = Missing Value Source: NWS Daily Summary

Daily Weather History Graph

Daily Weather History Graph

Search for Another Location

Airport or City:

Trip Planner

Search our weather history database for the weather conditions in past years. The results will help you decide how hot, cold, wet, or windy it might be!

Date:

Astronomy

Dec. 25, 2012 Rise Set
Actual Time 7:13 AM HST 6:01 PM HST
Civil Twilight 6:49 AM HST 6:26 PM HST
Nautical Twilight 6:21 AM HST 6:54 PM HST
Astronomical Twilight 5:54 AM HST 7:21 PM HST
Moon 4:14 PM HST (12/25) 5:01 AM HST (12/25)
Length of Visible Light 11h 36m
Length of Day
10h 47m
Waxing Gibbous, 94% of the Moon is Illuminated
Dec 25
Waxing Gibbous
Dec 28
Full
Jan 4
Last Quarter
Jan 11
New
Jan 18
First Quarter

Hourly Weather History & Observations

Time (HST) Temp. Dew Point Humidity Pressure Visibility Wind Dir Wind Speed Gust Speed Precip Events Conditions
12:53 AM 69.1 °F 66.0 °F 90% 30.03 in 10.0 mi West 6.9 mph - 0.01 in Rain Light Rain
1:53 AM 69.1 °F 66.0 °F 90% 30.03 in 10.0 mi West 6.9 mph - 0.00 in Rain Light Rain
2:53 AM 69.1 °F 64.9 °F 87% 30.01 in 10.0 mi West 6.9 mph - 0.00 in Rain Light Rain
3:53 AM 68.0 °F 64.0 °F 87% 30.01 in 10.0 mi West 5.8 mph - 0.00 in   Mostly Cloudy
4:53 AM 69.1 °F 64.0 °F 84% 30.01 in 10.0 mi West 5.8 mph - 0.00 in Rain Light Rain
5:53 AM 68.0 °F 64.0 °F 87% 30.02 in 10.0 mi WNW 5.8 mph - 0.01 in   Overcast
6:12 AM 68.0 °F 64.4 °F 88% 30.03 in 10.0 mi West 5.8 mph - N/A   Overcast
6:19 AM 68.0 °F 64.4 °F 88% 30.04 in 10.0 mi West 6.9 mph - N/A   Overcast
6:53 AM 68.0 °F 64.9 °F 90% 30.04 in 9.0 mi WNW 4.6 mph - 0.01 in Rain Light Rain
7:49 AM 68.0 °F 64.4 °F 88% 30.05 in 10.0 mi WNW 6.9 mph - 0.00 in   Overcast
7:53 AM 68.0 °F 64.9 °F 90% 30.05 in 10.0 mi WNW 5.8 mph - 0.00 in   Overcast
8:01 AM 68.0 °F 66.2 °F 94% 30.06 in 10.0 mi West 4.6 mph - N/A   Overcast
8:53 AM 72.0 °F 66.9 °F 84% 30.06 in 10.0 mi ENE 5.8 mph - N/A   Overcast
9:45 AM 73.4 °F 68.0 °F 83% 30.08 in 10.0 mi ENE 9.2 mph - 0.00 in Rain Light Rain
9:53 AM 73.9 °F 69.1 °F 85% 30.07 in 10.0 mi ENE 8.1 mph - 0.00 in Rain Light Rain
10:31 AM 73.4 °F 68.0 °F 83% 30.08 in 10.0 mi ENE 9.2 mph - 0.00 in Rain Light Rain
10:53 AM 75.0 °F 69.1 °F 82% 30.08 in 10.0 mi ENE 10.4 mph - 0.00 in Rain Light Rain
11:53 AM 75.0 °F 69.1 °F 82% 30.06 in 10.0 mi East 11.5 mph - 0.00 in   Mostly Cloudy
12:28 PM 75.2 °F 69.8 °F 83% 30.06 in 10.0 mi East 9.2 mph - N/A   Mostly Cloudy
12:40 PM 75.2 °F 69.8 °F 83% 30.05 in 10.0 mi East 8.1 mph - N/A   Overcast
12:49 PM 75.2 °F 69.8 °F 83% 30.05 in 10.0 mi ENE 8.1 mph - N/A   Overcast
12:50 PM 75.0 °F 70.0 °F 84% 30.04 in 10.0 mi ENE 8.1 mph - N/A   Overcast
12:56 PM 75.2 °F 69.8 °F 83% 30.04 in 10.0 mi ENE 8.1 mph - N/A   Overcast
1:22 PM 75.2 °F 69.8 °F 83% 30.03 in 10.0 mi East 10.4 mph - N/A   Overcast
1:53 PM 75.9 °F 70.0 °F 82% 30.02 in 10.0 mi East 9.2 mph - N/A   Overcast
2:53 PM 75.9 °F 70.0 °F 82% 30.00 in 10.0 mi East 13.8 mph - N/A   Overcast
3:53 PM 75.9 °F 70.0 °F 82% 30.00 in 10.0 mi ESE 6.9 mph - N/A   Mostly Cloudy
4:46 PM 73.4 °F 68.0 °F 83% 30.01 in 10.0 mi East 11.5 mph - N/A   Overcast
4:53 PM 73.9 °F 68.0 °F 82% 30.01 in 10.0 mi East 10.4 mph - N/A   Overcast
5:14 PM 73.4 °F 68.0 °F 83% 30.01 in 10.0 mi East 9.2 mph - N/A   Overcast
5:53 PM 73.9 °F 68.0 °F 82% 30.02 in 10.0 mi East 8.1 mph - N/A   Overcast
6:53 PM 73.9 °F 66.9 °F 79% 30.04 in 10.0 mi East 4.6 mph - N/A   Overcast
7:53 PM 73.9 °F 68.0 °F 82% 30.06 in 10.0 mi East 9.2 mph - N/A   Overcast
8:53 PM 73.9 °F 68.0 °F 82% 30.07 in 10.0 mi East 13.8 mph - N/A   Overcast
9:53 PM 73.9 °F 68.0 °F 82% 30.07 in 10.0 mi East 10.4 mph - N/A   Overcast
10:53 PM 73.9 °F 66.9 °F 79% 30.07 in 10.0 mi East 13.8 mph - N/A   Overcast
11:53 PM 73.9 °F 66.0 °F 76% 30.08 in 10.0 mi East 12.7 mph - N/A   Overcast